Weather in NPS Druzhba

Russia / Samara Oblast     53°04′35″N   50°13′58″E
temp.,
°C
wind,
m/s
gust,
m/s
humid.,
%
clouds,
%
prec.,
mm/h
press.,
hPa
HPBL,
m
9 december, thu
thu901:00−1se6149089 0.0 1027400
04:00−3se51390100 0.0 1027390
07:00−3se61388100 0.0 1026389
10:00−3se5138399 0.0 1026444
13:00−1se51281100 0.0 1025489
16:00−2se41085100 0.0 1024352
19:00−2ese3788100 0.1 1024237
22:00−2ese3689100 0.1 1024163
10 december, fri
fri1001:00−2e2489100 0.0 102397
04:00−3ene3591100 0.0 1023151
07:00−3ne4790100 0.0 1023224
10:00−3nne4889100 0.0 1024327
13:00−2ne51084100 0.0 1025426
16:00−2nne61185100 0.0 1025414
19:00−3nne71390100 0.0 1027472
22:00−3nne71391100 0.0 1027506
11 december, sat
sat1101:00−4nne7139195 0.0 1028519
04:00−5nne6138873 0.0 1030464
07:00−7nne714750 0.0 1031448
10:00−7nne715720 0.0 1032498
13:00−6ne715670 0.0 1032546
16:00−6ne613700 0.0 1034480
19:00−7ne613730 0.0 1036425
22:00−8ne512770 0.0 1037348
12 december, sun
sun1201:00−8ne511814 0.0 1038288
04:00−9ne49845 0.0 1040201
07:00−9ne38855 0.0 1041172
10:00−8ene37855 0.0 1042178
13:00−6ene35742 0.0 1043210
16:00−7ene23865 0.0 104346
19:00−8ene23925 0.0 104441
22:00−9e11945 0.0 104422
13 december, mon
mon1301:00−10e11955 0.0 104412
04:00−10e11945 0.0 104517
07:00−10e11935 0.0 104411
10:00−9e22835 0.0 104436
13:00−5e22675 0.0 1043100
16:00−7e11825 0.0 104310
19:00−9ese22885 0.0 104322
22:00−9se22875 0.0 104219